Home   Weather   Dindigul   Past weeks

Flag for India Past Weather in Dindigul, Tamil Nadu, India — Yesterday and Last 2 Weeks

Now
88 °F

Haze.


Feels Like: 96 °F
Forecast: 76 / 97 °F
Wind: 3 mph from Northwest

Location: Tiruchchirapalli

Current Time: Apr 24, 2017 at 7:17:08 am

Latest Report: Apr 24, 2017 at 6:30 am


Visibility: 2 mi

Pressure: 29.74 "Hg

Humidity: 62%

Dew Point: 73 °F

Location of DindigulLocation

Past Weather in Dindigul — Graph

°F

Dindigul Temperature Yesterday

Maximum temperature yesterday: 106 °F (at 3:30 pm)
Minimum temperature yesterday: 82 °F (at 1:00 am)
Average temperature yesterday: 92 °F

High & Low Weather Summary for the Past Weeks

 TemperatureHumidityPressure
High108 °F (Apr 17, 3:00 pm)84% (Apr 9, 5:30 am)29.86 "Hg (Apr 9, 5:30 am)
Low81 °F (Apr 9, 5:30 am)20% (Apr 15, 5:30 pm)29.59 "Hg (Apr 15, 3:00 pm)
Average92 °F54%29.73 "Hg
* Reported Apr 9 5:30 am — Apr 24 6:00 am, Dindigul, Weather by CustomWeather, © 2017

Note: Actual official high and low records may vary slightly from our data, if they occured in-between our weather recording intervals... More about our weather records

Advertising

Dindigul Weather History for the Previous 24 Hours

Scroll right to see more
 ConditionsComfort  
Time TempWeatherWind HumidityBarometerVisibility
6:00 am
Mon, Apr 24
86 °FHaze.3 mph66%29.74 "Hg2 mi
5:30 am86 °FHaze.3 mph66%29.74 "Hg2 mi
5:00 am88 °FHaze.No wind66%29.71 "Hg2 mi
4:30 am88 °FHaze.No wind66%29.71 "Hg2 mi
4:00 am88 °FHaze.No wind66%29.71 "Hg2 mi
3:30 am88 °FHaze.No wind66%29.71 "Hg2 mi
3:00 am88 °FHaze.No wind66%29.71 "Hg2 mi
2:30 am88 °FHaze.5 mph66%29.71 "Hg2 mi
2:00 am88 °FHaze.No wind66%29.71 "Hg2 mi
1:30 am88 °FHaze.2 mph66%29.71 "Hg2 mi
1:00 am88 °FHaze.2 mph66%29.74 "Hg2 mi
12:30 am88 °FHaze.3 mph66%29.74 "Hg2 mi
12:00 am88 °FHaze.3 mph66%29.74 "Hg2 mi
11:30 pm
Sun, Apr 23
88 °FHaze.3 mph66%29.77 "Hg2 mi
11:00 pm88 °FHaze.3 mph66%29.74 "Hg2 mi
10:30 pm90 °FHaze.3 mph63%29.74 "Hg2 mi
10:00 pm90 °FHaze.5 mph63%29.74 "Hg2 mi
9:30 pm90 °FPassing clouds.3 mph59%29.74 "Hg2 mi
9:00 pm90 °FPassing clouds.3 mph59%29.74 "Hg2 mi
8:30 pm91 °FThunderstorms. Passing clouds.3 mph56%29.77 "Hg2 mi
8:00 pm91 °FHaze.3 mph59%29.74 "Hg2 mi
7:30 pm93 °FHaze.3 mph56%29.71 "Hg3 mi
7:00 pm97 °FHaze.6 mph50%29.68 "Hg3 mi
6:30 pm100 °FPassing clouds.9 mph40%29.65 "Hg4 mi
5:30 pm104 °FPassing clouds.No wind33%29.62 "Hg5 mi
5:00 pm104 °FPassing clouds.No wind31%29.62 "Hg5 mi
4:30 pm106 °FPassing clouds.No wind30%29.62 "Hg5 mi
4:00 pm106 °FPassing clouds.No wind30%29.65 "Hg5 mi
3:30 pm106 °FPassing clouds.No wind30%29.65 "Hg5 mi
3:00 pm104 °FPassing clouds.3 mph31%29.65 "Hg4 mi
2:30 pm104 °FPassing clouds.3 mph33%29.68 "Hg4 mi
2:00 pm102 °FPassing clouds.6 mph35%29.71 "Hg4 mi
1:30 pm102 °FPassing clouds.7 mph35%29.71 "Hg4 mi
1:00 pm100 °FPassing clouds.9 mph40%29.74 "Hg4 mi
12:30 pm99 °FClear.10 mph39%29.74 "Hg4 mi
12:00 pm99 °FClear.13 mph39%29.77 "Hg4 mi
11:30 am97 °FClear.12 mph42%29.77 "Hg4 mi
11:00 am95 °FClear.15 mph47%29.80 "Hg4 mi
10:30 am93 °FHaze.15 mph49%29.80 "Hg3 mi
10:00 am91 °FHaze.14 mph52%29.80 "Hg3 mi
9:30 am91 °FHaze.12 mph52%29.80 "Hg3 mi
9:00 am90 °FHaze.12 mph55%29.80 "Hg2 mi
8:30 am88 °FHaze.13 mph59%29.80 "Hg2 mi
8:00 am86 °FHaze.13 mph59%29.80 "Hg2 mi
7:30 am84 °FHaze.10 mph62%29.77 "Hg2 mi
7:00 am84 °FHaze.5 mph62%29.77 "Hg2 mi
Weather by CustomWeather, © 2017

See weather overviewHow to use our weather pages